Regional Weather Roundup
Issued by NWS

Home | Current Version | Previous Version | Graphics & Text | Print | Product List | Glossary On
Versions: 1 2 3 4 5 6 7 8 9 10 11 12 13 14 15 16 17 18 19 20 21 22 23 24 25 26 27
000
ASUS45 KTFX 210910
RWRMT
MONTANA REGIONAL WEATHER ROUNDUP
NATIONAL WEATHER SERVICE GREAT FALLS MT
200 AM MST TUE FEB 21 2017

NOTE: "FAIR" INDICATES FEW OR NO CLOUDS BELOW 12000 FEET WITH NO
SIGNIFICANT WEATHER AND/OR OBSTRUCTIONS TO VISIBILITY.

MTZ001>007-043-211000-
WEST OF THE DIVIDE

CITY           SKY/WX    TMP DP  RH WIND       PRES   REMARKS
KALISPELL      PTCLDY    32  29  88 SW5       29.68S
MISSOULA       FOG       32  32 100 W3        29.73S VSB 1/4
BUTTE          CLOUDY    35  28  75 N6        29.73S WCI  30
MULLAN PASS    CLOUDY    26  25  96 S6        29.64S FOG     WCI  19
ANACONDA         N/A     39  28  65 SE13G21   29.71R WCI  32
DEER LODGE       N/A     36  30  80 CALM      29.73S
EUREKA           N/A     37  28  70 NW3       29.68R
HAMILTON         N/A     36  34  93 S7        29.72S WCI  30
LIBBY            N/A     32  30  93 CALM      29.67R
PLAINS           N/A     34  27  76 E3        29.72S
RONAN            N/A     38  30  73 SE1       29.75S
$$

MTZ008-052>055-211000-
SOUTHWEST MONTANA

CITY           SKY/WX    TMP DP  RH WIND       PRES   REMARKS
BOZEMAN        CLOUDY    37  31  78 S3        29.73S
DILLON         CLOUDY    37  30  75 N3        29.72F
W YELLOWSTONE  LGT SNOW  32  32 100 SW20G30   29.83F VSB 1   WCI  20
ENNIS          CLOUDY    43  30  61 S20G28    29.79S
THREE FORKS      N/A     45 -44   2 CALM      29.74S
$$

MTZ009-010-012-014-046-048-049-054-211000-
EAST SLOPES AND CENTRAL MONTANA

CITY           SKY/WX    TMP DP  RH WIND       PRES   REMARKS
CUT BANK       CLEAR     35  24  64 NW7       29.60R WCI  29
GREAT FALLS    CLOUDY    40  29  64 SW15      29.65R
MALMSTROM AFB  CLOUDY    40  31  70 SW20      29.64S
HELENA         CLOUDY    37  31  78 W6        29.69S
AUGUSTA        MOCLDY    35  28  75 W13       29.63F WCI  26
BOWMANS CRNR     N/A     35  30  79 SW14      29.64F WCI  26
CHOTEAU          N/A     37  28  70 SW10G17   29.61S WCI  30
CONRAD           N/A     38  28  67 NW6       29.65S
POWER          MOCLDY    35  29  79 SW16      29.61S WCI  25
RAYNESFORD     MOCLDY    29  27  91 CALM      29.67R
ULM            MOCLDY    41  30  65 MISG      29.67R
$$

MTZ011-013-016-021-045-047-050-051-211000-
NORTH CENTRAL MONTANA

CITY           SKY/WX    TMP DP  RH WIND       PRES   REMARKS
HAVRE          CLOUDY    36  32  85 SW13      29.63R WCI  27
LEWISTOWN      CLOUDY    33  27  78 SW9       29.68S WCI  25
N BAR RANCH      N/A     36  23  60 CALM      29.70R
CHINOOK          N/A     37  32  81 W8        29.62S WCI  31
DENTON         MOCLDY    35  29  79 SW13      29.64R WCI  26
FORT BENTON      N/A     37  30  75 CALM      29.67R
GEYSER         MOCLDY    32  28  85 SW10      29.65R WCI  24
GRASS RANGE    MOCLDY    39  30  70 W13       29.63S WCI  31
JUDITH GAP     MOCLDY    43  28  55 W13G20    29.68S
ROY              N/A     41  30  64 MISG      29.65R
STANFORD         N/A     35  27  72 W3        29.66R
WINIFRED         N/A     40  30  67 S8        29.66R
$$

MTZ017>020-022>027-061-062-211000-
NORTHEAST MONTANA

CITY           SKY/WX    TMP DP  RH WIND       PRES   REMARKS
GLASGOW        CLEAR     34  32  92 S9        29.64R WCI  27
JORDAN           N/A     32  29  88 W6        29.66R WCI  26
SIDNEY         CLEAR     29  26  89 S7        29.66R WCI  22
WOLF POINT     CLEAR     32  30  92 SW5       29.65R
PLENTYWOOD       N/A     36  30  80 SE5       29.63R
POPLAR           N/A     36  32  87 SW6       29.65S WCI  31
SCOBEY           N/A     33  25  73 CALM      29.63R
$$

MTZ028>42-056>058-211000-
SOUTHCENTRAL AND SOUTHEAST MONTANA

CITY           SKY/WX    TMP DP  RH WIND       PRES   REMARKS
BAKER          CLOUDY    41  28  60 W7        29.71R
BILLINGS       CLOUDY    46  31  55 SW12      29.69F
LIVINGSTON     CLOUDY    47  31  53 SW22G31   29.71R
MILES CITY     CLOUDY    42  29  59 S6        29.69S
BIG TIMBER     CLOUDY    46  30  53 W12       29.73S
EKALAKA          N/A     46  26  46 SW6       29.74R
FORSYTH          N/A     48  30  49 SW6       29.70R
HARLOWTON      MOCLDY    39  30  69 W15       29.68S WCI  31
LAUREL           N/A     46  28  49 SW10      29.72F
$$

REGIONAL REPORTS...DAKOTAS

CITY           SKY/WX    TMP DP  RH WIND       PRES   REMARKS
WILLISTON      CLEAR     36  29  75 SW3       29.64R
MINOT          CLOUDY    36  31  82 N7        29.66S WCI  30
DICKINSON      PTCLDY    40  27  59 SW15      29.63S
BEACH            N/A    N/A N/A N/A MISG        N/A
CROSBY           N/A     32  32 100 CALM      29.65S
TIOGA          MOCLDY    34  34 100 E3        29.65S
WATFORD CITY     N/A     28  27  93 W3        29.65S
BISMARCK       PTCLDY    37  31  78 E6        29.69F
GRAND FORKS    CLOUDY    30  26  85 SW5       29.74R
FARGO          CLEAR     33  30  88 S5        29.77S
BUFFALO SD       N/A     46  32  58 SW17      29.66R
RAPID CITY     CLEAR     54  28  36 S13       29.79R
$$

REGIONAL REPORTS...WYOMING/IDAHO/WASHINGTON

CITY           SKY/WX    TMP DP  RH WIND       PRES   REMARKS
GILLETTE       CLOUDY    48  32  53 SW30G39   29.77S
SHERIDAN       PTCLDY    47  29  49 SE16G22   29.74S
BUFFALO WY     CLOUDY    47  25  42 VRB6      29.77F
CODY           CLOUDY    45  31  58 VRB6G18   29.79R
YELLOWSTONE LA   N/A     30  30 100 CALM      29.87F
IDAHO FALLS    LGT RAIN  37  37 100 S10       29.90S FOG     WCI  30
SALMON         CLOUDY    37  34  87 SE3       29.74S
BOISE          CLOUDY    48  41  76 SE20G28   29.77F
SPOKANE        CLOUDY    33  32  96 CALM      29.70S
$$

REGIONAL REPORTS...ALBERTA

CITY           SKY/WX    TMP DP  RH WIND       PRES   REMARKS
EDMONTON       CLOUDY    30  27  86 SW5       29.65R
CALGARY        MOCLDY    28  28 100 W5        29.58R FOG
LETHBRIDGE     CLEAR     28 N/A N/A W6        29.60R WCI  22
MEDICINE HAT   MOCLDY    32  30  93 CALM      29.56R
CARDSTON         N/A     30  28  93 N2          N/A
MILK RIVER       N/A     32  28  86 NW2         N/A
$$

REGIONAL REPORTS...SASKATCHEWAN

CITY           SKY/WX    TMP DP  RH WIND       PRES   REMARKS
SWIFT CURRENT  CLOUDY    32  30  93 VRB2      29.57S
REGINA         CLOUDY    32  30  93 VRB2      29.62S
SASKATOON      CLOUDY    32  28  86 NW6       29.66S WCI  26
VAL MARIE        N/A     27  25  93 SW6         N/A  WCI  20
ROCKGLEN         N/A     32  25  74 SW3         N/A
ASSINIBOIA       N/A     30  28  93 NE2         N/A
$$




USA.gov is the U.S. government's official web portal to all federal, state and local government web resources and services.